RESULTATS 2003 Classement - Général


Pos Géné Temps Dos Nom Prénom Cat Sex An Pays Equipe
1 1 00:05:55.4 744 RUFFIER LANCHE RAPHAEL sk M FRA
2 2 00:06:01.8 717 URAS LUDOVIC sk M FRA
3 3 00:06:05.0 683 MEYNET OLIVIER sk M FRA
4 4 00:06:06.1 932 QUENET FREDY sk M FRA
5 5 00:06:11.6 924 MANUEL PATRICE sk M FRA
6 6 00:06:13.8 884 MAYER SEBASTIEN sk M FRA
7 7 00:06:22.4 218 MEYNET CYRIL sk M FRA
8 8 00:06:27.9 609 STAMOS BRUNO sk M FRA
9 9 00:06:28.8 263 TCHIKNAVORIAN STEPHANE sk M FRA
10 10 00:06:30.4 782 VALICEK LUDVIK sk M CZE
11 11 00:06:33.1 391 QUENET YANN sk M FRA
12 12 00:06:35.3 317 PITALLIER STEPHANE sk M FRA
13 13 00:06:38.5 309 SICARDI JEROME sk M FRA
14 14 00:06:41.1 208 LAMAZOUADE FRANCOIS sk M FRA
15 15 00:06:42.9 280 FORNOS FRA sk M FRA
16 16 00:06:47.2 79 GOBY ARSENE sk M FRA
17 17 00:06:53.3 472 LAVANCHY PIERRE sk M FRA
18 18 00:06:56.9 298 MAZIERES FREDERIC sk M FRA
19 19 00:06:58.9 59 PIASCO VINCENT sk M FRA
20 20 00:07:06.0 916 SURLAND LASSE sk M DNK
21 21 00:07:07.7 969 KOTLIAR GILLES sk M FRA
22 22 00:07:08.3 679 FRA OLIVIER sk M FRA
23 23 00:07:13.0 972 LEONARD STEVE sk M FRA
24 24 00:07:16.2 26 BOURGINE JEAN FRANCOIS sk M FRA
25 25 00:07:17.4 564 CLARAZ BONNEL FRA sk M FRA
26 26 00:07:21.5 921 PALLADIO ERIC sk M FRA
27 27 00:07:23.1 697 BOBILLIER PHILIPPE sk M FRA
28 28 00:07:25.6 600 PUGIN-BRON YVAN sk M FRA
29 29 00:07:26.9 694 SUIFFET NICOLAS sk M FRA
30 30 00:07:27.9 532 BOURDEL STEPHANE sk M FRA
31 31 00:07:29.7 760 MARGHERITI CHARLES sk M FRA
32 32 00:07:37.9 913 VILLARS FREDERIC sk M FRA
33 33 00:07:42.5 756 TISSOT ALBIN te M FRA
34 34 00:07:45.5 358 TREYVE PASCAL sk M FRA
35 35 00:07:48.4 704 DURET XAVIER mo M FRA
36 36 00:07:49.0 258 TROUBAT CLEMENT sk M FRA
37 37 00:07:53.7 726 FELIX IVAN mo M FRA
38 38 00:07:54.5 680 PINATEL FRANCOIS sk M FRA
39 39 00:07:56.2 349 LAURENT AURELIN sk M FRA
40 40 00:07:56.5 326 NOVEL YOANN sk M FRA
41 41 00:07:58.4 764 DEPIGNY AURELIEN sk M FRA
42 42 00:08:00.1 539 FOREL ALAIN sk M FRA
43 43 00:08:00.1 976 DELLINGER FELIX sk M DEU
44 44 00:08:00.2 336 BOURGINE PHILIPPE sk M FRA
45 45 00:08:00.6 622 ROZAND FLORENT sk M FRA
46 46 00:08:03.6 597 HUE PASCAL sk M FRA
47 47 00:08:04.1 811 IRIBARNES LILIAN sk M FRA
48 48 00:08:04.6 459 FRICK WILLIAM sk M FRA
49 49 00:08:06.2 885 COOMBS DOUG sk M FRA
50 50 00:08:07.7 322 BENTZ MICHAEL sk M FRA
51 51 00:08:09.5 943 RONDREUX SYLVAIN sk M FRA
52 52 00:08:09.7 420 ESP OLIVIER sk M FRA
53 53 00:08:10.2 692 DIGONNET LINCAS mo M FRA
54 54 00:08:11.3 177 BONHOMME NICOLAS te M FRA
55 55 00:08:11.7 162 COTTET FREDERIC sk M FRA
56 56 00:08:12.0 478 DISETTI JEAN BAPTISTE sk M FRA
57 57 00:08:12.9 875 MEIZOZ FRA sk M FRA
58 58 00:08:13.2 703 POINSONNET BERTRAND sk M FRA
59 59 00:08:14.1 279 LEONETTI STEPHANE sk M FRA
60 60 00:08:14.5 134 BERGZOLL IVAN sk M FRA
61 61 00:08:14.9 788 LUC RENAUD sk M FRA
62 62 00:08:15.4 66 FRIIS NICOLAY sk M NOR
63 63 00:08:15.6 814 VOGG ANDREAS sk M DEU
64 64 00:08:16.5 954 MANDIN SEBASTIEN sk M FRA
65 65 00:08:18.0 784 SAVOY OLIVIER sk M FRA
66 66 00:08:18.7 550 VACHEZ OLIVIER sk M FRA
67 67 00:08:23.3 142 CATTELIN FRA sk F FRA
68 68 00:08:24.0 652 REYMOND LUDOVIC sk M FRA
69 69 00:08:24.2 300 CIVALLERI GILLES sk M FRA
70 70 00:08:25.4 554 BORBOEN CHRISTOPHE sk M CHE
71 71 00:08:28.0 345 MERLOZ FRA sk M FRA
72 72 00:08:28.9 653 VILLETON FRA sk M FRA
73 73 00:08:30.7 979 HEUKEMES LUDOVIC sk M BEL
74 74 00:08:31.6 640 JANZEN ROSS sk M CAN
75 75 00:08:31.9 612 ABBATE ROBIN te M FRA
76 76 00:08:32.4 629 BOURDELLE FRA mo M FRA
77 77 00:08:33.0 656 SIDNEY BERTRAND sk M FRA
78 78 00:08:33.2 400 SCHULTZ STEPHANE sk M FRA
79 79 00:08:33.4 510 JACQUIER NICOLAS sk M FRA
80 80 00:08:33.5 918 ADRION ARNAUD sk M FRA
81 81 00:08:34.0 508 RIZZO PATRICE sk M FRA
82 82 00:08:34.0 573 VERON MICHELLE sk F FRA
83 83 00:08:37.3 861 MORANVAL FRA su M FRA
84 84 00:08:38.9 304 MALLEN LAURENT sk M FRA
85 85 00:08:39.1 85 ROUTENS AURELIEN su M FRA
86 86 00:08:40.6 260 BAUD EDOUARD sk M FRA
87 87 00:08:40.6 355 TRIBALI ALEXIS sk M FRA
88 88 00:08:40.6 408 DISETTI CEDRIC sk M FRA
89 89 00:08:41.6 930 BAERNARDINI ALEX sk M FRA
90 90 00:08:41.7 901 LESTRADE OLIVIER sk M FRA
91 91 00:08:42.6 82 PETIT ANTOINE sk M FRA
92 92 00:08:43.1 659 LAVANCHY MICHEL sk M FRA
93 93 00:08:43.1 953 BATHELEMY THOMAS sk M FRA
94 94 00:08:43.7 65 DAVIDE TOSI sk M ITA
95 95 00:08:44.4 105 DEWYSPELAERE THIERRY sk M FRA
96 96 00:08:44.6 348 YVONNET BERTRAND sk M FRA
97 97 00:08:48.4 592 BONNEVIE FREDDY sk M FRA
98 98 00:08:49.6 746 CHANTEPIE DAVID sk M FRA
99 99 00:08:49.8 174 MORGENROTH CHRISTIAN sk M DEU
100 100 00:08:50.5 812 SIONNET NICOLAS sk M FRA
101 101 00:08:50.7 518 TROUILLOUD JEAN-PIERRE sk M FRA
102 102 00:08:52.4 482 PIC NICOLAS te M FRA
103 103 00:08:52.6 579 LE GALL STEPHANE te M FRA
104 104 00:08:53.3 731 VILLETON PATRICK sk M FRA
105 105 00:08:53.7 991 CHATAIGNE MANU sk M FRA
106 106 00:08:55.0 881 GAILLARD MARTIN sk M FRA
107 107 00:08:56.1 171 CHOMAT OLIVIER sk M FRA
108 108 00:08:56.8 232 NGUYEN AMY te F FRA
109 109 00:08:57.6 296 PIGNIER PATRICK sk M FRA
110 110 00:08:58.5 226 MAYER FRA sk M DEU
111 111 00:08:58.9 920 BALMAIN DAVID sk M FRA
112 112 00:08:59.4 535 BADEL GREGOIRE sk M FRA
113 113 00:08:59.7 580 PONCET FREDERIC te M FRA
114 114 00:09:01.6 264 GIDON LAURENT sk M FRA
115 115 00:09:02.1 24 NAGUARD JAKOB sk M DNK
116 116 00:09:02.5 49 MICHEL NICOLAS sk M FRA
117 117 00:09:02.6 33 SCHOULER NICOLAS mo M FRA
118 118 00:09:02.6 672 BALLYET GAYLORD sk M FRA
119 119 00:09:03.7 690 BOUCHERAND YANNICK te M FRA
120 120 00:09:04.1 588 PLASSOT OLIVIER sk M FRA
121 121 00:09:04.9 896 BOURGEOIS ADRIEN sk M FRA
122 122 00:09:05.7 780 COUDURIER ALEXIS su M FRA
123 123 00:09:06.5 146 BOCOS SEBASTIEN sk M FRA
124 124 00:09:06.8 52 MARIN LAMELLET THIBAULT te M FRA
125 125 00:09:08.2 241 ROSSET XAVIER su M CHE
126 126 00:09:08.6 946 GRASSONE XAVIER sk M FRA
127 127 00:09:09.3 189 MAYOUSSE VINCENT sk M FRA
128 128 00:09:09.4 810 BERGMANN LAURENT sk M FRA
129 129 00:09:09.5 662 SOUTHALL TRISTAN sk M GBR
130 130 00:09:09.6 586 MATHIEU JEAN CLAUDE sk M FRA
131 131 00:09:09.9 387 BERTHONNIER YVES sk M FRA
132 132 00:09:11.7 720 BOUVIER GREGORY sk M FRA
133 133 00:09:12.7 405 LARRIEU THIERRY sk M FRA
134 134 00:09:13.1 936 COOMBS EMILY sk F FRA
135 135 00:09:14.6 511 HANSEN OLIVIER su M FRA
136 136 00:09:15.6 824 KEMPF MATHIAS sk M FRA
137 137 00:09:16.7 503 THERON LAURENT sk M FRA
138 138 00:09:20.0 649 MULLER ANNE-SOPHIE sk F FRA
139 139 00:09:20.0 540 GOHL THOMAS sk M CHE
140 140 00:09:21.4 616 ARNAUD DAVID mo M FRA
141 141 00:09:22.2 272 DI FOGGIA ANTHONY sk M FRA
142 142 00:09:22.6 277 ROYNETTE LAURENT sk M FRA
143 143 00:09:22.7 866 V NIELSEN MORTEN sk M DNK
144 144 00:09:23.4 890 BECKER ANNETTE sk F DEU
145 145 00:09:24.6 642 SIMON NICOLAS sk M FRA
146 146 00:09:25.3 501 MONTEL ARNAUD sk M FRA
147 147 00:09:25.8 772 AESCHBACH MIKE su M CHE
148 148 00:09:27.5 711 PORRET JEAN LUC te M FRA
149 149 00:09:28.2 439 MATTLER CLAUDE sk M FRA
150 150 00:09:28.7 424 BOUTET DAVID te M FRA
151 151 00:09:29.0 126 PERSSON ERIK sk M SWE
152 152 00:09:29.4 155 CHATRIAN ERIC te M FRA
153 153 00:09:29.6 282 ROCHEZ PHILIPPE sk M FRA
154 154 00:09:32.5 119 MONTAZ CEDRIC sk M FRA
155 155 00:09:34.9 199 RESPINGER AXEL sk M FRA
156 156 00:09:36.2 182 RIGONI STEFANO sk M ITA
157 157 00:09:36.3 847 LOUIS JEAN-HUGUES sk M FRA
158 158 00:09:36.4 892 PANICHI ERIC sk M FRA
159 159 00:09:36.9 23 LOEHR PIERRE sk M FRA
160 160 00:09:37.6 800 BIDAULT PIERRE sk M FRA
161 161 00:09:38.5 288 PATISS su M FRA
162 162 00:09:39.6 874 LEVET DENIS sk M FRA
163 163 00:09:39.7 513 LAINE JUHA sk M FIN
164 164 00:09:40.0 618 PINTEAUX MICHEL sk M FRA
165 165 00:09:40.1 379 BERNARDIN LUCAS sk M FRA
166 166 00:09:40.4 608 DUFOUR THIERRY sk M FRA
167 167 00:09:42.1 730 TIRLET PASCAL sk M FRA
168 168 00:09:42.4 994 PERRON OLIVIER sk M FRA
169 169 00:09:44.3 926 COTTET-PUINEL JEAN FRANCOIS sk M FRA
170 170 00:09:44.7 251 DE PROFT NICOLAS sk M BEL
171 171 00:09:46.1 973 WEBER KLAUS sk M DEU
172 172 00:09:48.6 163 DURET PHILIPPE su M FRA
173 173 00:09:49.2 533 PETIT CHRISTOPHE sk M FRA
174 174 00:09:49.3 269 GOSSELIN XAVIER sk M FRA
175 175 00:09:51.0 291 SOUBIRAN CHRISTOPHE sk M FRA
176 176 00:09:51.8 643 MAURY FLORENT su M FRA
177 177 00:09:51.9 558 MORILLON PATRICK sk M FRA
178 178 00:09:52.6 834 MINIER PIERRE sk M FRA
179 179 00:09:53.3 311 GAUTIER BRUNO sk M FRA
180 180 00:09:53.8 552 SOLEMIEUX THIBAULT su M FRA
181 181 00:09:54.1 843 FRA BRUNO mo M FRA
182 182 00:09:54.6 286 CUIN JEAN FRANCOIS sk M FRA
183 183 00:09:55.3 641 RICHEMOND FRA sk M FRA
184 184 00:09:55.4 225 CHOUPIN JEROME su M FRA
185 185 00:09:56.2 325 DE KEYSER NICOLAS sk M BEL
186 186 00:09:56.5 851 PAYEN PHILIPPE sk M FRA
187 187 00:09:56.9 706 BUISSON LUC sk M FRA
188 188 00:09:56.9 724 RIZZO BRUNO sk M FRA
189 189 00:09:57.0 130 COLIN PIERRE sk M FRA
190 190 00:09:57.3 741 LANG PELLE te M FRA
191 191 00:09:58.0 421 SAUTERON VINCENT sk M FRA
192 192 00:09:58.1 835 MARTIN ABDOU sk M FRA
193 193 00:09:58.1 295 MADER OLIVIER sk M FRA
194 194 00:09:58.2 705 DEWARRAT STEPHAN sk M CHE
195 195 00:09:59.2 380 VESIN FABRICE sk M FRA
196 196 00:09:59.5 176 CHAUDOUAR BORIS te M FRA
197 197 00:09:59.5 372 BORGEAT REGIS sk M CHE
198 198 00:09:59.6 645 DEMENOUD JEAN sk M FRA
199 199 00:09:59.7 789 REINWALD NADINE sk F FRA
200 200 00:10:00.9 578 COLLBO KLAS sk M SWE
201 201 00:10:02.4 631 BLOMGUIST CHRISTINA sk F SWE
202 202 00:10:02.4 934 COTTET MELANIE sk F FRA
203 203 00:10:02.7 525 DUJARDIN REMY sk M FRA
204 204 00:10:03.0 383 VIGNEAU FRA sk M FRA
205 205 00:10:03.3 100 GERVAIS PIERRE sk M FRA
206 206 00:10:04.8 675 DUTIROU CHRISTOPHE su M FRA
207 207 00:10:04.9 430 ZANELLI ADRIEN sk M FRA
208 208 00:10:05.0 651 PROREL BENJAMIN su M FRA
209 209 00:10:05.8 28 NEUHAUSER ANDREAS sk M DEU
210 210 00:10:06.0 124 POLETTI FRA sk M FRA
211 211 00:10:06.1 718 BOURLET GILLES sk M FRA
212 212 00:10:06.9 190 PERSSON CHARLOTTE sk F SWE
213 213 00:10:08.2 275 MOSSER STEPHANE sk M FRA
214 214 00:10:09.1 714 MATHIEU PIERRE_HENRY sk M FRA
215 215 00:10:10.5 240 BLANCHARD RAPHAEL sk M FRA
216 216 00:10:12.2 128 MICHALET YANN su M FRA
217 217 00:10:12.9 297 CASTLE RICHARD sk M GBR
218 218 00:10:13.0 4 RASMUS NEERGAARD JACOBSEN sk M FRA
219 219 00:10:13.3 27 RAVANAT OLIVIER sk M FRA
220 220 00:10:13.5 581 PAVLOVIC PHILIPPE sk M FRA
221 221 00:10:14.1 648 GARNIER SAMUEL mo M FRA
222 222 00:10:14.1 590 COTTARD GUILLAUME sk M FRA
223 223 00:10:14.2 894 BERGONZO FRA sk M FRA
224 224 00:10:15.3 783 PARIZET STEPHANIE sk F FRA
225 225 00:10:15.5 963 MICHEL XAVIER su M FRA
226 226 00:10:15.7 907 OGGERI CHRISTOPHE te M FRA
227 227 00:10:15.8 646 BRAILLON CHRISTIAN sk M FRA
228 228 00:10:16.5 556 PETIBON NICOLAS sk M FRA
229 229 00:10:16.6 870 MAHERAULT OLIVIER sk M FRA
230 230 00:10:17.1 310 PAULY JOSEPH sk M FRA
231 231 00:10:17.9 576 MENY JEAN BAPTISTE sk M FRA
232 232 00:10:18.3 367 RAUCHENBERG ROBERT sk M GBR
233 233 00:10:18.5 691 JOHANSEN SOREN sk M DNK
234 234 00:10:18.7 474 VANDELLE JEROME sk M FRA
235 235 00:10:18.9 553 RESPINGER WILFRID sk M FRA
236 236 00:10:19.0 826 LINDBERG SUSANNA te F SWE
237 237 00:10:19.8 611 ROELANDT HUBERT sk M FRA
238 238 00:10:20.9 663 BORREIL OLIVIER sk M FRA
239 239 00:10:21.8 451 NICOLLET PIERRE sk M FRA
240 240 00:10:22.9 614 TONNELIER NICOLAS su M FRA
241 241 00:10:23.4 164 GUEHL NICOLAS sk M FRA
242 242 00:10:23.6 144 LATASTE YVANN sk M FRA
243 243 00:10:24.1 170 PERRAUDIN RONNY su M FRA
244 244 00:10:25.0 708 BUISSON LAURENT sk M FRA
245 245 00:10:25.2 927 GAILLARD YANNICK sk M FRA
246 246 00:10:25.8 40 GARCIA CYRILLE te M FRA
247 247 00:10:26.3 658 BAILLOT SEVERINE sk F FRA
248 248 00:10:26.9 267 MARTIN PATRICE sk M FRA
249 249 00:10:27.2 993 PETIT MARIE CLAIRE sk F FRA
250 250 00:10:27.4 623 BALDACHINO OLIVIER sk M FRA
251 251 00:10:27.6 198 TRILLON YANN sk M FRA
252 252 00:10:28.5 654 EICHENLAUB GAB sk M FRA
253 253 00:10:30.1 148 FAGEDET OLIVIER sk M FRA
254 254 00:10:30.1 262 REVIL LIONEL sk M FRA
255 255 00:10:30.2 97 RESPINGER CEDRIC sk M FRA
256 256 00:10:31.2 481 CORBET CHRISTOPHE sk M FRA
257 257 00:10:31.4 287 JEAN DAVID su M FRA
258 258 00:10:31.8 80 AUZARY ROMAIN sk M CHE
259 259 00:10:31.9 975 AS JOSEFINE sk F FRA
260 260 00:10:33.4 567 ROBERT FRA sk M FRA
261 261 00:10:34.4 350 TROPIANO FREDERIC te M ITA
262 262 00:10:34.4 502 DE MONTLIVAULT OLIVIER sk M FRA
263 263 00:10:35.0 473 MUGNIER-BROZ CHRISTIAN sk M FRA
264 264 00:10:35.5 752 NICOT FRA sk M FRA
265 265 00:10:35.8 876 LANDGRAAF RAYMOND sk M NLD
266 266 00:10:36.0 891 BEIGBEDER THOMAS sk M FRA
267 267 00:10:36.6 635 MATTENET WILFRID sk M FRA
268 268 00:10:36.8 599 WILSON NEIL sk M FRA
269 269 00:10:37.0 69 GARDES ERIC su M FRA
270 270 00:10:37.3 748 LESCA FRA sk M FRA
271 271 00:10:37.8 802 CYPRIANO JEAN MARIE sk M FRA
272 272 00:10:38.3 464 MONTEIL JEROME sk M FRA
273 273 00:10:38.6 935 KUMER OLIVIER sk M FRA
274 274 00:10:39.4 60 BAWOLEC PAWEL sk M POL
275 275 00:10:41.2 856 AMBLARD DAMIEN su M FRA
276 276 00:10:41.3 341 XELOT CHARLES sk M FRA
277 277 00:10:41.5 461 BOBIN ANTOINE sk M FRA
278 278 00:10:42.1 853 GRUNDMANN AXEL sk M DEU
279 279 00:10:42.6 141 GIGER GREGOIRE mo M FRA
280 280 00:10:42.7 779 VINCENT CYRIL sk M FRA
281 281 00:10:43.1 209 CHE LIONEL sk M FRA
282 282 00:10:43.4 776 CHAMPEY BERTRAND sk M FRA
283 283 00:10:43.9 839 SATRE AURELIEN sk M FRA
284 284 00:10:44.1 626 FLAGEOLLET SEBASTIEN sk M FRA
285 285 00:10:45.0 678 DE LORIOL OLIVIER sk M CHE
286 286 00:10:45.2 929 BERTOLOTTI JEAN MICHEL sk M FRA
287 287 00:10:45.3 407 MARTIN NIELS sk M FRA
288 288 00:10:46.6 933 MONNEY FRED sk M CHE
289 289 00:10:46.8 457 FEHRENBACH CYRILLE sk M FRA
290 290 00:10:46.8 823 LAUNIER GREGORIE sk M FRA
291 291 00:10:46.9 565 GILLY JEAN FRANCOIS su M FRA
292 292 00:10:47.4 487 ROMAN LAURE sk F FRA
293 293 00:10:47.9 995 GOIN CEDRIC su M FRA
294 294 00:10:48.6 308 PARANTEAU FABIEN sk M FRA
295 295 00:10:48.7 242 ARSICAUD XAVIER sk M FRA
296 296 00:10:48.8 429 JULIA SYLVAIN sk M FRA
297 297 00:10:49.1 417 GUILLAUME PATRICK sk M FRA
298 298 00:10:50.1 951 ROYNETTE MATHIEU sk M FRA
299 299 00:10:50.4 781 JOHANSEN TINA te F FRA
300 300 00:10:51.1 431 BSCHEIDER MICHAEL su M SWE
301 301 00:10:51.4 728 PERRET BASTIEN su M FRA
302 302 00:10:51.6 803 MACIPE JEAN CHRISTOPHE sk M FRA
303 303 00:10:51.7 777 CHARLES JEROME sk M FRA
304 304 00:10:52.4 771 ANTONY NICOLAS su M FRA
305 305 00:10:53.0 3 BRET JEROME sk M FRA
306 306 00:10:53.1 548 GAILLARD BRUNO sk M FRA
307 307 00:10:54.2 99 ROUGE NICOLAS sk M FRA
308 308 00:10:55.1 20 GUEBEY BENJAMIN sk M FRA
309 309 00:10:55.2 801 MARQUET FRANCOIS sk M FRA
310 310 00:10:55.2 762 WALLER CHRISTIAN su M DEU
311 311 00:10:55.4 78 JANIN ROMAIN su M FRA
312 312 00:10:55.7 716 RAVANEL AUDREY sk F FRA
313 313 00:10:56.3 109 CATHERIN ROMAIN sk M FRA
314 314 00:10:57.7 276 BRESSON PATRICE sk M FRA
315 315 00:10:57.9 852 SAVINE ERIC sk M FRA
316 316 00:10:58.0 493 BONNEFOY SERGE sk M FRA
317 317 00:10:58.5 491 PEISEL MICHAEL sk M AUT
318 318 00:10:59.2 496 LUBIARZ CAROLINE sk F FRA
319 319 00:10:59.9 919 GUIGNARD JEAN-PIERRE sk M FRA
320 320 00:11:00.2 167 CHALAVOUX DAMIEN sk M FRA
321 321 00:11:00.2 792 SIEMMEN NICOLAS sk M FRA
322 322 00:11:03.7 159 VIDAL BRUNO sk M FRA
323 323 00:11:04.8 156 NICOT THIERRY sk M FRA
324 324 00:11:05.0 681 EIBL STEFAN sk M DEU
325 325 00:11:05.7 745 BUNTESKI DENIS su M FRA
326 326 00:11:06.0 500 LELIEVRE LIONEL su M FRA
327 327 00:11:06.4 94 RENAUD PHILIPPE mo M FRA
328 328 00:11:07.7 813 PREMPAIN LAURENCE sk F FRA
329 329 00:11:08.5 50 PLANITZER KARL sk M AUT
330 330 00:11:08.8 555 OPELZ MARIA sk F AUT
331 331 00:11:09.2 388 REPELLIN CHRISTOPHE su M FRA
332 332 00:11:09.3 104 JOST DORIAN te M CHE
333 333 00:11:09.4 838 KORJA MIIKKA te M FIN
334 334 00:11:09.9 842 JACQUET CLAUDE sk M FRA
335 335 00:11:10.0 977 GARRIOU GERARD sk M FRA
336 336 00:11:11.1 786 DEMANGE FABIEN sk M FRA
337 337 00:11:11.1 248 LLADO JEROME sk M FRA
338 338 00:11:11.2 498 AVENEL GABRIEL sk M FRA
339 339 00:11:12.0 768 BRESCHI CHRISTOPHE sk M FRA
340 340 00:11:12.1 147 KOCH THIBAUT sk M FRA
341 341 00:11:12.4 774 OLMICCIA PHILIPPE sk M FRA
342 342 00:11:14.8 101 CHEVEAUX OLIVIER sk M FRA
343 343 00:11:14.8 73 BERTEZ CYRIL sk M FRA
344 344 00:11:15.0 543 FERRER CATENA NACHO sk M ESP
345 345 00:11:15.4 808 CASTILLAN HUGUES sk M FRA
346 346 00:11:16.2 909 MICHELLOD PASCAL su M FRA
347 347 00:11:16.3 971 THOUILLEZ LAURENT sk M FRA
348 348 00:11:16.5 594 BUYSE CEDRIC sk M FRA
349 349 00:11:17.0 314 PULS STEFFEN sk M DEU
350 350 00:11:17.1 486 CAUJOLLE JULIEN sk M FRA
351 351 00:11:17.2 664 HARDOUIN LOICK sk M FRA
352 352 00:11:17.9 178 HORLAVILLE SEBASTIEN su M FRA
353 353 00:11:18.1 497 PITIS JEAN-PIERRE sk M FRA
354 354 00:11:18.9 750 POCHON DIMITRI sk M FRA
355 355 00:11:20.4 340 AIDAN BENJAMIN sk M FRA
356 356 00:11:20.6 561 WEIDMANN STEFAN sk M GBR
357 357 00:11:21.9 265 CHARVET CHRISTOPHE sk M FRA
358 358 00:11:22.2 48 AMIEL STEPHANE sk M FRA
359 359 00:11:22.5 739 VOURC H NILS sk M FRA
360 360 00:11:23.4 411 DEROCHE MATTHIEU sk M FRA
361 361 00:11:25.3 5 DELL ACCIO VINCENT sk M FRA
362 362 00:11:26.3 1 BAILLET DAVID sk M FRA
363 363 00:11:28.6 447 BAUD YANN sk M FRA
364 364 00:11:28.7 403 JAILLET STEFAN mo M FRA
365 365 00:11:28.9 699 BRAGA PAOLO sk M ITA
366 366 00:11:31.2 671 GERMAIN DOMINIQUE mo M FRA
367 367 00:11:31.2 394 VERGNES FABIEN sk M FRA
368 368 00:11:31.2 686 VOREL ZDENEK sk M CZE
369 369 00:11:31.9 184 GIRARDIER FRA mo M FRA
370 370 00:11:32.2 676 GUENEGO PIERRE-ANDRE sk M FRA
371 371 00:11:32.7 647 ROCHETTE JEAN-THOMAS sk M FRA
372 372 00:11:33.2 138 MAESLO RAYMOND sk M FRA
373 373 00:11:34.3 732 RIPERT JULIEN su M FRA
374 374 00:11:34.6 384 MASSON NICOLAS te M FRA
375 375 00:11:34.8 77 NORDEL ANDERS te M FRA
376 376 00:11:34.8 888 PATTARONI JEROME su M FRA
377 377 00:11:35.5 136 BATAILLE MICHEL sk M FRA
378 378 00:11:36.4 906 ER RAFIQI NADIA su F FRA
379 379 00:11:37.8 844 BOURGIT JEAN MICHEL sk M FRA
380 380 00:11:37.9 878 ILBERT OLIVIER sk M FRA
381 381 00:11:38.8 239 BENETTI PIERO sk M ITA
382 382 00:11:38.9 912 BURDIN STEPHANE sk M FRA
383 383 00:11:38.9 39 SUATON CHRISTOPHE sk M FRA
384 384 00:11:39.0 318 MEURIOT YANN sk M FRA
385 385 00:11:39.2 216 MOREAU GERAUD sk M FRA
386 386 00:11:40.2 238 VILLARD NICOLAS sk M FRA
387 387 00:11:40.7 734 CHEROUSE THIERRY sk M FRA
388 388 00:11:41.9 186 JENATON MATHIEU sk M FRA
389 389 00:11:42.2 941 EICHENLAUB YVES sk M FRA
390 390 00:11:42.2 438 MARTINAZZO JEREMY sk M FRA
391 391 00:11:43.7 320 POTAGE GREGORY sk M FRA
392 392 00:11:44.5 108 HUGRET PATRICE sk M FRA
393 393 00:11:44.6 302 GRIGIS VINCENT sk M FRA
394 394 00:11:45.6 346 PFANNER ERIC sk M DEU
395 395 00:11:46.6 183 CAVALLO BENJAMIN sk M FRA
396 396 00:11:47.3 749 DODE JEAN MICHEL sk M FRA
397 397 00:11:48.4 36 STAUFFERT ETIENNE sk M FRA
398 398 00:11:48.5 19 MACKENZIE ALLISSON sk F FRA
399 399 00:11:48.6 377 IMBERT LAURENT sk M FRA
400 400 00:11:49.1 359 TREMBLAY SIMON sk M FRA
401 401 00:11:49.1 988 MORIN MATTHIEU su M FRA
402 402 00:11:49.9 122 NESLAND LIV BERIT te F NOR
403 403 00:11:50.3 970 STUDER BENJAMIN su M FRA
404 404 00:11:50.9 18 BONLIEU CHARLES te M FRA
405 405 00:11:51.8 827 NASI JOHN su M ITA
406 406 00:11:52.2 331 HAGSPIEL ANNA sk F FRA
407 407 00:11:52.5 84 MASCARDI MATTEO sk M ITA
408 408 00:11:52.6 86 MICHEL PHILIPPE sk M FRA
409 409 00:11:53.4 15 JEANNIN GILLES sk M FRA
410 410 00:11:54.2 819 MILLER JULIEN sk M FRA
411 411 00:11:54.3 615 METZ FRA sk M DEU
412 412 00:11:54.8 366 BORG QUENTIN sk M FRA
413 413 00:11:55.5 371 NOVAREZ FLORENT su M FRA
414 414 00:11:56.3 180 HUE ANTHONY sk M FRA
415 415 00:11:58.1 292 BIZ PHIL sk M FRA
416 416 00:12:01.0 468 ZEIGER SEBASTIAN sk M DEU
417 417 00:12:01.1 369 FAIVRE EMILIE sk F FRA
418 418 00:12:01.5 211 THOMAS FABRICE sk M FRA
419 419 00:12:03.6 324 PERRON SAMUEL su M FRA
420 420 00:12:04.1 168 ROBIN SYLVAIN sk M FRA
421 421 00:12:06.4 72 DESCOMBES SEBASTIEN su M FRA
422 422 00:12:07.1 406 DE CORBIERE GUILLAUME sk M FRA
423 423 00:12:07.6 845 CHANEL BENOIT su M FRA
424 424 00:12:07.7 271 BRENAS LAURENT sk M FRA
425 425 00:12:08.4 837 GUIBBANI FRA sk M FRA
426 426 00:12:08.5 723 FRA IANN sk M FRA
427 427 00:12:09.0 603 SPOHR CAMILLA sk F FRA
428 428 00:12:09.4 404 LAYAT JEAN CHRISTOPHE mo M FRA
429 429 00:12:09.6 116 GACHASSIN DIDIER sk M FRA
430 430 00:12:09.9 566 MOLLET DAVID su M FRA
431 431 00:12:10.0 409 SMITH PAUL te M FRA
432 432 00:12:10.3 195 INCONNU Lui su M FRA
433 433 00:12:10.8 747 KOVAL BORIS sk M FRA
434 434 00:12:11.8 285 GAUCLERE VINCENT sk M FRA
435 435 00:12:12.4 278 KOVARIK DAVID sk M DEU
436 436 00:12:13.3 46 DESOYRES PHILIPPE su M FRA
437 437 00:12:14.0 522 ESP JEAN FREDERIC sk M CHE
438 438 00:12:14.4 855 MAXIT NATHALIE sk F FRA
439 439 00:12:14.8 754 ONDERDELINDEN GEORGE su M NLD
440 440 00:12:14.9 266 STELLA YVES sk M FRA
441 441 00:12:14.9 531 PAQUEREAU JEAN-BAPTISTE sk M FRA
442 442 00:12:14.9 37 LOPEZ LAURENT sk M FRA
443 443 00:12:15.4 257 PELLERIN STEPHANE mo M FRA
444 444 00:12:15.7 560 TRIVERY ALAIN sk M FRA
445 445 00:12:16.5 619 JOSSELIN FRA sk M FRA
446 446 00:12:17.3 398 MAGRE ALAIN sk M FRA
447 447 00:12:18.2 858 MONVOISIN MICHEL sk M FRA
448 448 00:12:18.4 696 MICHAUD FIDEY NICOLAS sk M FRA
449 449 00:12:20.4 867 FORESTIER ANTOINE su M FRA
450 450 00:12:20.5 893 FOURCADE FRA sk M FRA
451 451 00:12:20.6 254 GRAS SEBASTIEN sk M FRA
452 452 00:12:21.0 948 POCHON JONATHAN sk M FRA
453 453 00:12:22.2 351 XAVER MARKUS sk M FRA
454 454 00:12:22.2 255 MOUTTE NICOLAS su M FRA
455 455 00:12:23.0 375 MORANVAL TINA su F FRA
456 456 00:12:23.1 895 JEAN MARIE-GABRIELLE sk F FRA
457 457 00:12:24.3 102 KUHN THOMAS sk M FRA
458 458 00:12:24.3 214 MORANDIERE ERIC sk M FRA
459 459 00:12:24.4 601 JAMET FLAVIEN sk M FRA
460 460 00:12:24.7 519 FRA BRUNO sk M FRA
461 461 00:12:25.4 131 STUDER DAMIEN sk M FRA
462 462 00:12:26.5 221 LE BIGOT FABRICE su M FRA
463 463 00:12:28.8 475 HANUS JAROSLAV su M CZE
464 464 00:12:28.8 939 ROUX STEPHANE su M FRA
465 465 00:12:29.9 456 ROBERT MARYLINE sk F FRA
466 466 00:12:30.5 489 SAVOUILLAN GILLES sk M FRA
467 467 00:12:31.0 551 BOIVEAU LAURENT te M FRA
468 468 00:12:31.2 987 BERGER ROMAIN su M FRA
469 469 00:12:31.2 363 AMARAL ERIC su M FRA
470 470 00:12:33.5 568 HORLAVILLE YVAN su M FRA
471 471 00:12:34.3 70 VIDAL JEAN sk M FRA
472 472 00:12:35.3 846 ATRUZ NELLY sk F FRA
473 473 00:12:36.9 968 SOMMER NICOLAS sk M FRA
474 474 00:12:37.1 422 BURTIN JOEL mo M FRA
475 475 00:12:38.1 569 BOLLON PATRICK sk M FRA
476 476 00:12:38.4 829 NOTONIER DOMINIQUE sk M FRA
477 477 00:12:39.7 794 BODEM JULIAN MARC su M DEU
478 478 00:12:39.9 992 ORSONI FABRICE sk M FRA
479 479 00:12:39.9 873 RIVIERE ROCH su M FRA
480 480 00:12:44.0 337 PEYRON NICOLAS sk M FRA
481 481 00:12:44.4 528 BAILLET PHILIPPE sk M FRA
482 482 00:12:44.7 212 PENICAUD FLORENCE sk F FRA
483 483 00:12:44.9 165 LAFOURCADE THIERRY sk M FRA
484 484 00:12:45.2 650 JULIEN DAVID su M FRA
485 485 00:12:47.9 947 JEANDEAU DENIS su M FRA
486 486 00:12:48.3 270 COULBAULT LEO sk M FRA
487 487 00:12:49.1 435 DAUBEUF JEROME su M FRA
488 488 00:12:51.4 886 BORDAS CHRISTOPHE su M FRA
489 489 00:12:53.1 591 SCHELS SIMON su M DEU
490 490 00:12:53.3 959 CAZERES JULIEN su M FRA
491 491 00:12:53.9 787 MECENE JOEL sk M FRA
492 492 00:12:54.0 889 PLEWA CHRISTIAN sk M DEU
493 493 00:12:54.2 541 SAUZIERE CAMILLE su M FRA
494 494 00:12:54.7 727 MARIE ANTOINE su M FRA
495 495 00:12:54.8 305 COLY VINCENT mo M FRA
496 496 00:12:55.8 981 RAVAILLE NICOLAS su M FRA
497 497 00:12:55.9 423 MOLLUNA JOAN sk M ESP
498 498 00:12:56.8 982 ARCHAT CHRISTOPHE mo M FRA
499 499 00:12:57.8 529 PROVENAZ LAURENT sk M FRA
500 500 00:12:58.0 365 ROULIER NICOLAS sk M FRA
501 501 00:12:58.3 342 FIORESE STEVE su M FRA
502 502 00:13:01.1 107 DROUOT VINCENT su M FRA
503 503 00:13:02.2 584 GRINSCHGL ERNST sk M AUT
504 504 00:13:03.1 127 JACQUIER REMY sk M FRA
505 505 00:13:04.5 940 CONTE BERNARD sk M FRA
506 506 00:13:05.1 150 RABY PATRICE sk M FRA
507 507 00:13:06.7 247 COTTET OLIVIER sk M FRA
508 508 00:13:07.2 667 HERDEWYN MARTIAL te M FRA
509 509 00:13:07.4 463 COROUGE EMILIE su F FRA
510 510 00:13:07.6 769 GABRIEL GUILLAUME te M FRA
511 511 00:13:07.7 244 CHAMOT CLAIRE sk F FRA
512 512 00:13:08.0 58 geoffoy château YVAN su M FRA
513 513 00:13:08.1 575 VENABLES JESSICA su F FRA
514 514 00:13:10.7 713 ACHAT RICHARD sk M FRA
515 515 00:13:10.7 92 KAISER CHRISTOPHE sk M FRA
516 516 00:13:10.8 90 PALM PIA te F SWE
517 517 00:13:12.1 836 MASMEIJER FLORIS JAN sk M NLD
518 518 00:13:12.8 815 MASSANO FABIEN sk M FRA
519 519 00:13:13.2 441 CROMMEN GREGORY sk M FRA
520 520 00:13:14.0 978 LAIRD JIM sk M GBR
521 521 00:13:14.4 820 SARLIN CEDRIC sk M FRA
522 522 00:13:15.4 246 CHETIOUI OLIVIER sk M FRA
523 523 00:13:15.8 983 OUATELI YOUCEF sk M FRA
524 524 00:13:16.0 512 NEYRINCK LUC sk M CHE
525 525 00:13:16.2 321 COLLIN SAMUEL su M FRA
526 526 00:13:16.6 990 KHALIFA OLIVIER su M FRA
527 527 00:13:16.6 133 DECHAMBRE CARO LE su F FRA
528 528 00:13:17.1 542 BOSMANS MARCK sk M NLD
529 529 00:13:17.3 193 BERRUYER PATRICK au M FRA
530 530 00:13:17.5 796 SCHRUOFFENEGER ALAIN sk M FRA
531 531 00:13:18.1 151 CAMPIDELLI YVES sk M FRA
532 532 00:13:18.5 669 LEROUX STEPHANE sk M FRA
533 533 00:13:20.1 825 MAHE THIERRY sk M FRA
534 534 00:13:20.3 964 LOMONT GAELLE sk F FRA
535 535 00:13:21.8 666 HARRIMAN MICHAEL sk M AUS
536 536 00:13:22.6 426 NIVARD BERTRAND sk M FRA
537 537 00:13:24.8 125 FUGIER CHARLOTTE sk F FRA
538 538 00:13:24.8 477 SCHOLLMAYER MARTIN su M DEU
539 539 00:13:27.1 31 VIGE MAXIME sk M CHE
540 540 00:13:27.4 467 NOIREL JULIEN sk M FRA
541 541 00:13:27.7 537 BOZZA CHARLY su M ITA
542 542 00:13:28.1 410 ROESCH DAVID sk M FRA
543 543 00:13:29.0 571 VEDEL LAURENT sk M FRA
544 544 00:13:30.1 347 MONEY MELANIE sk F GBR
545 545 00:13:30.2 17 GRASSET THOMAS sk M FRA
546 546 00:13:30.3 339 BOURGUIGNON BRUNO sk M FRA
547 547 00:13:30.6 21 LE SAUSSE DELPHINE sk F FRA
548 548 00:13:30.6 196 CAMARD BENOIT sk M FRA
549 549 00:13:30.8 307 BARELLE STEPHANE sk M FRA
550 550 00:13:33.6 289 JAMET GAETAN su M FRA
551 551 00:13:34.0 865 WEISS FREDERIC te M FRA
552 552 00:13:35.2 636 SAVELLI DOMINIQUE sk M FRA
553 553 00:13:35.5 637 MARACHE PIERRE su M FRA
554 554 00:13:36.7 617 COUREAU FRA su M FRA
555 555 00:13:36.8 928 PORTAZ PIERRE-OLIVIER sk M FRA
556 556 00:13:37.5 822 TAVIER DOMINIQUE sk M FRA
557 557 00:13:38.0 62 EVERAERT KARL su M BEL
558 558 00:13:38.0 334 COSTA PAOLO sk M ITA
559 559 00:13:39.0 118 REWALD MICHAEL sk M FRA
560 560 00:13:39.5 402 DAVIDSEN SUSANNA su F ESP
561 561 00:13:39.5 804 EIBL TOBIAS sk M DEU
562 562 00:13:39.5 793 PARADINAS GIL sk M FRA
563 563 00:13:40.2 47 ARLOT SEBASTIEN su M FRA
564 564 00:13:41.9 301 JANIN NICOLAS su M FRA
565 565 00:13:41.9 763 DE HAAN WOUTER sk M NLD
566 566 00:13:43.0 516 MATHONNET LAURIE sk F FRA
567 567 00:13:43.0 41 COLLARDEAU LOUIS sk M FRA
568 568 00:13:44.3 259 SMITH DOUGLAS sk M GBR
569 569 00:13:44.4 98 NIJSSEN FRA sk M NLD
570 570 00:13:46.1 370 ROCHETTE FRANCOIS XAVIER sk M FRA
571 571 00:13:46.6 639 TEIXEIRA JOACHIM su M POR
572 572 00:13:47.3 595 HANICOTTE LAURENT sk M FRA
573 573 00:13:49.7 644 SALAUN LOIC MICHEL su M FRA
574 574 00:13:50.7 945 BERARD JEAN-YVES mo M FRA
575 575 00:13:51.5 237 CUVELIER ERIC su M FRA
576 576 00:13:51.8 173 GERENTES PIERRE sk M FRA
577 577 00:13:52.9 25 DUBAIL STEPHANE su M FRA
578 578 00:13:53.7 960 GUILLAUD EMMANUEL su M FRA
579 579 00:13:54.0 570 DEVELAY LUDOVIC sk M FRA
580 580 00:13:54.3 294 PEROZ ISABELLE su F FRA
581 581 00:13:54.6 695 DAL SASSO MARIANA sk F ITA
582 582 00:13:54.7 129 FAUVEL FRANCOIS su M FRA
583 583 00:13:55.9 93 GALLAIS SOPHIE mo F FRA
584 584 00:13:56.2 445 FRA ERIC su M FRA
585 585 00:13:56.3 110 SUDRES DAMIEN sk M FRA
586 586 00:13:56.9 879 BLANC PASCAL sk M FRA
587 587 00:13:57.0 715 BOLLETTE NATHALIE sk F FRA
588 588 00:13:57.1 446 WORMS EMMANUEL su M FRA
589 589 00:13:58.1 117 DUTOUR ALAIN sk M FRA
590 590 00:13:58.4 200 ALDAZ EDUARDO su M ESP
591 591 00:13:59.3 753 LAGIER VINCENT sk M FRA
592 592 00:14:00.0 153 GALVAING GERAUD sk M FRA
593 593 00:14:00.3 514 PORTALES JULIEN su M FRA
594 594 00:14:02.5 504 FARELLA PATRICK sk M FRA
595 595 00:14:02.7 316 VRAIN CYRIL au M FRA
596 596 00:14:03.3 103 BARNASSON RAPHAEL su M FRA
597 597 00:14:04.3 688 DUCROS FRA sk F FRA
598 598 00:14:04.3 507 TAILLARDAS JOEL sk M FRA
599 599 00:14:05.1 938 FRA VIRGINIE sk F FRA
600 600 00:14:05.6 462 RIGAUD PASCAL sk M FRA
601 601 00:14:06.7 761 FRA GOND sk M HUN
602 602 00:14:09.8 419 TOPIA NICOLAS su M FRA
603 603 00:14:10.6 338 RICARD ANTONIN su M FRA
604 604 00:14:10.7 250 FAUCHART BRICE sk M FRA
605 605 00:14:10.7 123 VASSOILLE LUCIE sk F FRA
606 606 00:14:10.8 950 TRUFFERT THIERRY sk M FRA
607 607 00:14:11.5 149 BURLEY MARTHA te F AUS
608 608 00:14:14.2 185 LEDUC PASCAL su M FRA
609 609 00:14:14.4 450 ROUX PHILIPPE su M FRA
610 610 00:14:15.0 327 GROS FREDERIC sk M FRA
611 611 00:14:15.2 917 CAZERES GUILLAUME su M FRA
612 612 00:14:16.6 13 METRAL FREDERIQUE sk F FRA
613 613 00:14:16.9 333 QUERO JAVIER sk M ESP
614 614 00:14:17.1 850 AMALFITANO ERIC su M FRA
615 615 00:14:18.8 961 CHABRY CEDRIC su M FRA
616 616 00:14:19.9 904 BROSSIER ROMAIN sk M FRA
617 617 00:14:21.4 158 SCHLYTTER CATHRINE te F NOR
618 618 00:14:22.4 413 MERMET PATRICK sk M FRA
619 619 00:14:22.6 373 SACK STEFAN sk M DEU
620 620 00:14:25.9 32 TEALDI IGOR su M ITA
621 621 00:14:26.2 390 MOURACHOFF JULIEN su M FRA
622 622 00:14:27.4 685 ALFEROFF FABRICE sk M FRA
623 623 00:14:28.4 965 VRAIN EMMANUELLE sk F FRA
624 624 00:14:28.8 42 EHRENBORG MADELEINE sk F SWE
625 625 00:14:28.9 840 SALOMEZ FABRICE su M FRA
626 626 00:14:29.6 392 RESTIVO FRA sk M FRA
627 627 00:14:30.9 256 MINVIELLE GILLES sk M FRA
628 628 00:14:31.5 115 GARDARIN LUDOVIC sk M FRA
629 629 00:14:33.4 613 GOBY. SOPHIE sk F FRA
630 630 00:14:33.9 759 CARRE OLIVIER su M FRA
631 631 00:14:33.9 261 ALCIM RUDY su M CHE
632 632 00:14:34.1 962 FUNDA WALTER sk M AUT
633 633 00:14:36.8 725 JACKSON NICK sk M GBR
634 634 00:14:37.1 868 RENEVIER CEDRIC te M FRA
635 635 00:14:37.7 841 GUDMUND JENSEN su M NOR
636 636 00:14:37.8 479 LORTON MARIE su F FRA
637 637 00:14:39.9 863 HEMELEERS GUNTER su M FRA
638 638 00:14:40.1 546 LE ROUX THIERRY sk M FRA
639 639 00:14:41.0 64 LOPEZ FRANCOIS XAVIER sk M FRA
640 640 00:14:42.4 883 BRUN VIRGINIE su F FRA
641 641 00:14:43.0 689 PONCET JEAN PHILIPPE sc M FRA
642 642 00:14:44.6 111 FRA ERIC su M FRA
643 643 00:14:46.4 817 HUVEY PAUL su M FRA
644 644 00:14:46.5 215 BERNARD ANTOINE su M FRA
645 645 00:14:46.9 51 DE SOYRES ANTOINE su M FRA
646 646 00:14:47.1 607 BERTON LUDOVIC mo M FRA
647 647 00:14:48.8 687 LAINEZ FRA sk M FRA
648 648 00:14:49.9 910 CONSTANTIN PHILIPPE sk M FRA
649 649 00:14:51.0 751 ESCULIER VINCENT su M FRA
650 650 00:14:51.2 989 FOUCHE MANU sc M FRA
651 651 00:14:52.1 492 BAZIN LOIC sk M FRA
652 652 00:14:54.4 655 PERRIN CEDRIC su M FRA
653 653 00:14:54.8 396 GUEYRAUD ERIC sk M FRA
654 654 00:14:55.7 799 PALUS BERTRAND su M FRA
655 655 00:14:56.4 35 FREIDEL PHILIPPE su M FRA
656 656 00:14:56.5 203 CHANDESRIS ANNE - LAURE sk F FRA
657 657 00:14:58.7 54 LEON ESTEBAN XAVI sk M ESP
658 658 00:14:59.6 55 TERO PEKKA ALASTALO su M FIN
659 659 00:14:59.8 944 MONTEILLET GEOFFREY su M FRA
660 660 00:15:01.9 137 MOREIRA SANDRA te F FRA
661 661 00:15:02.5 632 HUGUENIN YVES sk M FRA
662 662 00:15:04.1 30 FRANCOIS EMMANUEL sk M FRA
663 663 00:15:04.1 88 VISCUSO STEPHANE mo M FRA
664 664 00:15:04.7 444 ZENKLUSEN NATHALIE su F CHE
665 665 00:15:04.9 319 BARTHELEMY ERIC su M FRA
666 666 00:15:05.2 900 TROLLIET LOIC sk M FRA
667 667 00:15:05.3 452 CHAZOT ALEXANDRE su M FRA
668 668 00:15:05.6 661 PINO LACOSTA JORDI sk M ESP
669 669 00:15:05.7 213 POURAT XAVIER su M FRA
670 670 00:15:05.9 665 VERNAY PATRICK sk M FRA
671 671 00:15:07.0 630 ABOU GUILLAUME su M FRA
672 672 00:15:07.9 898 VERNET FREDERIC sk M FRA
673 673 00:15:08.5 29 SAULNIER SEBASTIEN sk M FRA
674 674 00:15:08.8 43 LEMOINE FRA sk M FRA
675 675 00:15:09.0 293 ELAN SAMUEL su M FRA
676 676 00:15:10.0 833 LECOEUR FABRICE sk M FRA
677 677 00:15:10.2 323 CHEVALLIER FRA sk M FRA
678 678 00:15:10.4 816 TEYSSOU MATTHIEU mo M FRA
679 679 00:15:11.8 95 WILLIOT FRA sk F FRA
680 680 00:15:12.5 557 BERNELIN RODOLPHE sk M FRA
681 681 00:15:13.6 733 CRUVELLIER CHRISTOPHE su M FRA
682 682 00:15:13.7 249 BETHOUX PIERRE JEAN su M FRA
683 683 00:15:15.0 172 DEWILDE LUDOVIC sk M FRA
684 684 00:15:15.6 231 ESPOSITO FRA su M FRA
685 685 00:15:16.4 312 LONCHAMP SEVERINE sk F FRA
686 686 00:15:16.7 974 URBES FLAVIEN sk M FRA
687 687 00:15:17.0 234 MORAND RAPHAEL te M FRA
688 688 00:15:17.6 674 LAMADIE SERGE su M FRA
689 689 00:15:17.8 490 ARTS TRUDO su M NLD
690 690 00:15:18.4 480 RAMASCO AMELIE su F FRA
691 691 00:15:19.9 22 FUCHS MANFRED sk M AUT
692 692 00:15:20.1 583 DODE VERONIQUE sk M FRA
693 693 00:15:20.7 828 POUZOULAS WILFRIED su M FRA
694 694 00:15:23.5 628 GENESTRE PHILIPPE sk M FRA
695 695 00:15:24.6 821 LUCARD FREDERIQUE sk M FRA
696 696 00:15:26.6 352 ANTONINI ANDREA sk M ITA
697 697 00:15:27.2 495 OUTRATA JINDRICH sk M CZE
698 698 00:15:28.0 235 KURTZEMANN bruno su M FRA
699 699 00:15:31.3 415 BOUCHARD JULIEN su M FRA
700 700 00:15:32.5 484 NORTON TANYA sk F GBR
701 701 00:15:34.0 634 SCHMITZBERGER MAUDE su F FRA
702 702 00:15:35.2 230 MALO ROGER sk M ESP
703 703 00:15:35.5 157 RICARD PIERRE sk M FRA
704 704 00:15:35.6 984 CORRE BRUCE sk M FRA
705 705 00:15:36.7 412 VRECKO LUCIEN sk M FRA
706 706 00:15:41.8 864 PERRIE LUDOVIC su M FRA
707 707 00:15:42.6 83 LAGER STEPHANE sk M FRA
708 708 00:15:44.4 778 HUILLIER CHRISTOPHE su M FRA
709 709 00:15:45.3 433 CONNELL JAMES sk M USA
710 710 00:15:48.5 145 PELLAN PHILIPPE mo M FRA
711 711 00:15:48.9 693 ROCOURT ERIC su M FRA
712 712 00:15:50.9 805 DELACOUR NICOLAS sk M FRA
713 713 00:15:51.9 63 MONIER THIERRY sk M FRA
714 714 00:15:52.3 736 VEILLANT ALBERT sk M FRA
715 715 00:15:52.3 356 PLEWA OLIVER sk M DEU
716 716 00:15:52.4 143 VALLIN PASCAL su M FRA
717 717 00:15:53.0 524 MIGUET DAMIEN su M FRA
718 718 00:15:53.9 677 TAILLANDIER GIL su M FRA
719 719 00:15:58.2 243 GAUDET PIERRE-OLIVIER sk M FRA
720 720 00:15:58.4 357 ARTAUD JEAN DANIEL su M FRA
721 721 00:15:58.6 442 ASTRUC CLAIRE su M FRA
722 722 00:16:01.0 16 LONDICHE WILLIAM sk M FRA
723 723 00:16:01.4 738 BUROLLAUD ERIC sk M FRA
724 724 00:16:02.5 766 LUBIATO YOANN sk M FRA
725 725 00:16:02.5 684 DURANTON JEROME su M FRA
726 726 00:16:03.4 368 SOULIER ZAK su M FRA
727 727 00:16:04.0 775 SANCHEZ-MANGAS COARASA JOE sk M ESP
728 728 00:16:09.3 290 BREITFUSS MATTHIAS sk M DEU
729 729 00:16:10.7 361 MARTIN NATHALIE sk F FRA
730 730 00:16:12.0 818 DUGAS JULIEN su M FRA
731 731 00:16:13.7 217 COLOM CANDIDO su M ESP
732 732 00:16:14.6 139 GOUTILLE PIERRE sk M FRA
733 733 00:16:17.9 169 BEAUFILS THIERRY su M FRA
734 734 00:16:18.2 219 BAUDIN FABRICE su M FRA
735 735 00:16:19.7 381 ZWEEKHORST CLEMENT su M BEL
736 736 00:16:21.5 737 TRUMAUT LAURENT sk M FRA
737 737 00:16:23.3 915 MOURACHOFF STEPHANE su M FRA
738 738 00:16:26.0 515 BAILLET ALAIN sk M FRA
739 739 00:16:26.5 161 SCARINGELLA RODOLPHE su M FRA
740 740 00:16:28.5 75 BASSET CHRYSTELLE mo F FRA
741 741 00:16:30.8 228 VERNAY CLAUDINE sk F FRA
742 742 00:16:31.5 418 VASSY FREDERIC sc M FRA
743 743 00:16:31.8 197 MAZAS ALEXANDRE su M FRA
744 744 00:16:33.4 509 STEHELIN BERTRAND su M FRA
745 745 00:16:33.6 521 TOUFLET DAVID sk M FRA
746 746 00:16:34.0 719 OBERGFELL ANDREAS su M DEU
747 747 00:16:34.0 34 FRA JEAN SEBASTIEN su M FRA
748 748 00:16:34.6 897 BURELLER ARNAUD su M FRA
749 749 00:16:34.7 887 SIQUIER CORRINE su F FRA
750 750 00:16:35.2 360 TENAND-MICHEL SEBASTIEN sk M FRA
751 751 00:16:39.8 113 BENETTI FABRIZIO te M ITA
752 752 00:16:40.3 638 BOTOMALEME LILOU su F FRA
753 753 00:16:42.3 253 DE BOER RONALD sk M NLD
754 754 00:16:44.4 549 ROLDAN DAVID su M ESP
755 755 00:16:44.5 621 JAMET ERIC su M FRA
756 756 00:16:47.8 135 AVENIERE ROGER sk M FRA
757 757 00:16:48.4 922 SARASOLA FLORENCE sk F FRA
758 758 00:16:48.8 432 MOAL DOMINIQUE sk M FRA
759 759 00:16:50.0 857 SERVEL PAUL sk M FRA
760 760 00:16:50.2 329 FORLI VIVIAN su M FRA
761 761 00:16:50.8 166 GONZALEZ SEB su M FRA
762 762 00:16:52.7 785 BENIERE HERVE su M FRA
763 763 00:16:59.4 869 ESP CATHERINE su F FRA
764 764 00:16:59.6 81 GUEREL ALEXANDRE su M FRA
765 765 00:17:01.4 530 ANTONIOLI NICOLAS su M FRA
766 766 00:17:02.8 71 CAMPBELL KATIE sk F FRA
767 767 00:17:04.3 773 DAURY OLIVIER su M FRA
768 768 00:17:04.3 880 BRAY VINCENT su M FRA
769 769 00:17:07.3 872 FORLI DOMINIQUE sk F FRA
770 770 00:17:07.7 848 CAUQUIL FRA su M FRA
771 771 00:17:09.7 53 SIAUGUES ERIC su M FRA
772 772 00:17:12.9 767 DNK ANDREAS sk M ESP
773 773 00:17:13.6 625 CHARLIER NICOLE sk F FRA
774 774 00:17:14.2 986 PICAULT SAMUEL sk M FRA
775 775 00:17:14.5 712 LARRANAGA JEAN MICHEL mo M FRA
776 776 00:17:15.9 471 RATAGNE FRA su M FRA
777 777 00:17:16.5 362 JANSSEN VERONICA sk F NLD
778 778 00:17:16.7 395 TUTOY PASCAL sk M FRA
779 779 00:17:18.6 87 CLAIRE PHILIPPE mo M FRA
780 780 00:17:21.0 899 BESSAC HERVE su M FRA
781 781 00:17:21.8 740 DOL ROMAIN su M FRA
782 782 00:17:22.2 923 SOUTIF LUDO sk M FRA
783 783 00:17:22.5 505 BOUVERY BERTRAND sk M FRA
784 784 00:17:23.6 627 GAUDIN EDOUARD su M CHE
785 785 00:17:23.7 506 GUERIN FRANCOIS sk M FRA
786 786 00:17:25.9 61 ROUFFINEAU LAURENT sk M FRA
787 787 00:17:29.8 670 BURBAN GWENAEL su M FRA
788 788 00:17:29.9 620 CARDIN JOHN-MARK sk M ITA
789 789 00:17:30.7 245 HERTRIECH FRA sk M FRA
790 790 00:17:31.9 967 BOURDELLE FRA mo F FRA
791 791 00:17:34.3 114 STOECKEL NICOLAS sk M FRA
792 792 00:17:36.2 434 VALLE CHRISTIAN su M FRA
793 793 00:17:36.4 585 AGERT STEPHANE su M 71 FRA
794 794 00:17:37.1 7 ROCHER GILLES su M FRA
795 795 00:17:38.1 236 BILLANDON GILBERT sk M FRA
796 796 00:17:38.7 204 LACHAUX JACKY sk M FRA
797 797 00:17:39.7 330 COSTA ANNA sk F ITA
798 798 00:17:40.2 862 ROZIN CHRISTOPHE sc M FRA
799 799 00:17:40.6 958 ETIENNE HUGUES sk M BEL
800 800 00:17:42.0 765 VELAY DAVID su M FRA
801 801 00:17:42.6 393 DAGHERO FRA su M FRA
802 802 00:17:46.6 572 MULLER MARIE su F FRA
803 803 00:17:47.5 132 ENGILBERGE MELODY su F FRA
804 804 00:17:48.3 911 LEGRAIN DAVID su M FRA
805 805 00:17:52.1 313 MASANET JUAN sk M FRA
806 806 00:17:52.4 44 SEIGNEUR SAMUEL te M FRA
807 807 00:17:55.1 386 BUISSON FRA sk F FRA
808 808 00:17:58.6 931 PENALVER THIERRY su M FRA
809 809 00:18:06.3 577 PAGLIAI PHILIPPE sk M FRA
810 810 00:18:07.0 89 RICARD ALBAN su M FRA
811 811 00:18:07.7 806 DE CAMPOU ALEXIS mo M FRA
812 812 00:18:08.9 544 HAMDOUCHI YACINE su M FRA
813 813 00:18:10.9 999 CREYSSEL DENIS sk M FRA
814 814 00:18:11.4 966 COIFFARD SABRINA sk F ITA
815 815 00:18:13.1 206 GOY PHILIPPE su M FRA
816 816 00:18:15.3 315 FAMIE OLIVIER su M FRA
817 817 00:18:20.9 698 BOUZEREAU FABRICE sk M FRA
818 818 00:18:22.0 399 VITUPIER RENAUD su M FRA
819 819 00:18:22.1 224 VIDAL MATHIEU su M FRA
820 820 00:18:25.8 91 BIANCHI SEBASTIEN au M FRA
821 821 00:18:28.0 770 LUCING YARIS sk M FRA
822 822 00:18:28.1 538 BARBALAT PHILIPPE su M FRA
823 823 00:18:31.1 476 WITTNER FABRICE su M FRA
824 824 00:18:31.6 517 NIVELLE LAURENT sc M FRA
825 825 00:18:35.1 707 COLORADO STEPHANE sk M FRA
826 826 00:18:36.5 860 O'DRISCOLL PIPPA su F GBR
827 827 00:18:37.0 9 FAURE BONNET ALEXANDRA su F FRA
828 828 00:18:41.2 466 MORILLON XAVIER su M FRA
829 829 00:18:45.2 882 RIGOUSTE SEBASTIEN su M FRA
830 830 00:18:46.4 523 ESCOFFIER FREDERIC su M FRA
831 831 00:18:47.0 942 GRANGEON JEAN-CHARLES sk M FRA
832 832 00:18:51.7 735 FERCHICHE HABIB sk M FRA
833 833 00:18:52.4 809 DEJEAN CLAUDE sc M FRA
834 834 00:18:53.3 949 BIGEARD SEBASTIEN sk M FRA
835 835 00:18:55.1 268 MOREALE VANINA su F FRA
836 836 00:18:56.7 797 ROULAND HERVE sk M FRA
837 837 00:18:58.1 574 MATHEVET OLIVIER sk M FRA
838 838 00:19:02.8 223 LAPORTE BENOIT su M FRA
839 839 00:19:04.6 354 MARTINEZ JEAN YVES su M FRA
840 840 00:19:05.4 106 SOURROUILLE LAURENT su M FRA
841 841 00:19:08.6 465 SABATIER CYRILLE su M FRA
842 842 00:19:10.2 233 MIOC VINCENT sk M BEL
843 843 00:19:11.1 903 DECAMPOU SYLVAIN su M FRA
844 844 00:19:15.8 382 KLINNIK FRED sk F FRA
845 845 00:19:21.8 914 GIBOTTEAU RODOLPHE sk M FRA
846 846 00:19:23.7 332 PULCHER NICCOLO su M ITA
847 847 00:19:29.6 598 FICHES FRA su M FRA
848 848 00:19:34.0 494 NUNEZ ENRIQUE su M FRA
849 849 00:19:34.9 416 BIZEUL BERTRAND sk M FRA
850 850 00:19:35.8 871 MATRAY CYRIL su M FRA
851 851 00:19:38.9 6 PIDOUX FRA su M FRA
852 852 00:19:39.2 563 AMPRIMO ALEXANDRE sk M FRA
853 853 00:19:39.8 593 LOVEY FREDERIC su M CHE
854 854 00:19:44.8 364 ESCOFFIER THIERRY mo M FRA
855 855 00:19:47.9 56 AULAGNE JEAN FRANCOIS sk M FRA
856 856 00:19:48.4 96 CROIZER DAMIEN su M FRA
857 857 00:19:48.7 673 HENNION PASCAL sk M FRA
858 858 00:19:50.1 755 ZHA MARTIN su M FRA
859 859 00:19:54.9 252 GARCIA LIONEL su M FRA
860 860 00:19:59.8 702 SEGURA MANOLO su M FRA
861 861 00:20:07.6 154 THEO THOMAS sk M FRA
862 862 00:20:18.7 957 TRUTSCHEL FREDERIQUE su F FRA
863 863 00:20:19.3 660 BUNGE LIONEL su M FRA
864 864 00:20:23.5 605 DOMENJOUD VINCENT su M FRA
865 865 00:20:24.1 859 THARINE FRA su F FRA
866 866 00:20:25.3 11 TARRIDE THIBAUT sk M FRA
867 867 00:20:29.1 710 ARSICAUD STEPHANE sk M FRA
868 868 00:20:35.5 2 ROBBAZ NICOLAS su M FRA
869 869 00:20:35.6 227 NAZARET DORIAN su M FRA
870 870 00:20:36.1 207 SERVEL FRA sk F FRA
871 871 00:20:43.1 152 MAZAS VIRGINIE sk F FRA
872 872 00:20:50.7 488 TERAB MANSOUR sk M FRA
873 873 00:21:04.6 120 PAGLIAI ALAIN sk M FRA
874 874 00:21:07.1 454 HELFFER CLAIRE su F FRA
875 875 00:21:10.7 854 CIVALE MARIE sk F FRA
876 876 00:21:15.3 12 GIRARDIN EMMANUEL su M FRA
877 877 00:21:16.3 485 BOUJENAH SAMIR su M FRA
878 878 00:21:22.8 668 SGOLMIN JEAN PHILIPPE sk M FRA
879 879 00:21:24.0 437 THIOLLIERE NICOLAS su M FRA
880 880 00:21:27.2 453 VERSAVEL MAXIME sk M FRA
881 881 00:21:32.1 596 ODDOUX LAURENT su M FRA
882 882 00:21:46.2 955 CABALLLERO DANIEL sk M ESP
883 883 00:21:47.3 389 LAGRANGE AURELIEN su M FRA
884 884 00:22:00.5 742 LEISINK CLAIRE sk F FRA
885 885 00:22:19.0 112 ABRIGHACH NAIM su M FRA
886 886 00:22:21.0 274 MOLINA PASCAL su M FRA
887 887 00:22:23.7 299 RICHTER BEATRICE sk F FRA
888 888 00:22:25.2 121 BORRAS SELLES FUENTES su M ESP
889 889 00:22:34.0 436 ISSERTINE CLAUDIE sk F FRA
890 890 00:22:40.6 205 KAHL GAETAN su M FRA
891 891 00:22:44.1 440 CHAVEROT EMILIE sk F FRA
892 892 00:22:47.1 534 JACOBS TJERK su M NLD
893 893 00:22:47.3 175 NUNES-VIEIRA DAVID su M FRA
894 894 00:22:48.3 757 JEAN JULIE su F FRA
895 895 00:22:50.0 526 BANNEEL PHILIPPE su M FRA
896 896 00:22:50.7 374 GREZIS BERTRAND su M FRA
897 897 00:22:52.8 701 GUICHARD ERIC su M FRA
898 898 00:22:57.8 229 FRA ALEX su M ESP
899 899 00:23:21.8 624 ISNEL PHILIPPE mo M FRA
900 900 00:23:25.3 57 SANTONI MICHEL su M FRA
901 901 00:23:32.5 832 HOLLEY THOMAS sk M FRA
902 902 00:23:35.1 877 GAUME LEONARD su M CHE
903 903 00:23:39.6 520 COZIC PASCAL sk M FRA
904 904 00:23:54.8 328 REDLET CAROLINE sk F FRA
905 905 00:24:07.9 902 VIGNOUD AUDRAY su F FRA
906 906 00:24:33.4 830 BREUKER NINA su F DEU
907 907 00:24:43.7 807 NEMETH ISTVAN sk M HUN
908 908 00:24:55.6 791 TITIANO PATRICK su M FRA
909 909 00:25:00.9 343 AUREJAC VINCENT su M FRA
910 910 00:25:04.1 273 LAMONICA SERGE su M FRA
911 911 00:25:04.8 798 RABOT CORINNE su F FRA
912 912 00:25:08.5 682 MOREAU JULIEN su M FRA
913 913 00:25:46.5 188 BAUD VINCENT sk M FRA
914 914 00:25:50.8 606 CAGNARD VINCENT sk M FRA
915 915 00:25:56.5 428 KOPPENMAGUE CORINNE mo F FRA
916 916 00:25:58.3 587 GUGLIELMI MARiO sk M ITA
917 917 00:26:29.9 657 VANDEVILLE FLAVIE su F FRA
918 918 00:26:43.0 610 ROQUES GUILLAUME sk M FRA
919 919 00:26:54.4 980 LEGORGEU THOMAS su M FRA
920 920 00:26:57.0 376 NADAL FABIEN su M FRA
921 921 00:27:01.9 68 FERIGOULE FREDERIC su M FRA
922 922 00:27:11.5 397 HOLMES FRA su M GBR
923 923 00:27:30.4 483 FLORIT VINCENT su M FRA
924 924 00:27:32.6 925 MELARD ALEXANDRA su F FRA
925 925 00:27:38.4 201 MORLAT LAURENT su M FRA
926 926 00:28:06.3 700 GIRARD NATHANAELLE su F FRA
927 927 00:29:15.8 547 DELSAUX JEAN-FRANCOIS sk M FRA
928 928 00:30:19.1 458 ORTIGER SANDRA su F FRA
929 929 00:30:21.2 76 ORSULIC MARC DAVID su M FRA
930 930 00:30:40.3 545 MARTINET FRA su F FRA
931 931 00:31:19.1 187 MUSITELLI JOHANNA su F FRA
932 932 00:31:42.1 427 POIRIER DENIS su M FRA
933 933 00:32:17.8 470 POISSONNET GAELLE su F FRA
934 934 00:32:19.5 831 MOREAU VALERIE su F FRA
935 935 00:32:47.1 160 FERTIER ANTOINE su M FRA
936 936 00:32:56.7 905 ROVEYAZ FRA su M FRA
937 937 00:33:47.8 140 COUSIN ERIC sk M FRA
938 938 00:34:38.1 849 TOURNEROCHE FRA su M FRA
939 939 00:35:01.0 559 KILIAN ASENSIO sk M ESP
940 940 00:36:15.3 996 GONZALEZ DAVID sk M FRA
941 941 00:36:19.4 997 GARDRAT STEPHANE au M FRA
942 942 00:36:21.3 998 RAMASCO JEAN-LUC sk M FRA
943 943 00:37:16.8 8 ROUS FABIEN su M FRA
944 944 00:39:29.6 45 DUQUE PITARCH FERMIN sk M ESP
945 945 00:39:48.8 67 FISCHER SERGE sk M FRA
946 946 00:41:07.6 633 PASSEDOIT VINCENT su M FRA
947 947 00:43:36.7 449 GONZALEZ PIERRE mo M FRA
948 948 00:44:54.3 536 JUGNET LAURENT su M FRA
949 949 00:50:06.5 448 BRIAND BENEDICTE sk F FRA
950 950 01:15:21.9 469 MERMILLOD JEAN mo M FRA
951 951 1:21:30.5 38 PONS JULIA su F FRA
952 952 1:39:09.7 181 DUFOUR GUILLAUME su M FRA
953 953 1:55:24.7 385 SASSO PHILIPPE su M FRA